Starlink 30559

operational
NORAD ID: 58039 Int'l Des: 2023-156 Owner: SPXS Country: US Constellation: starlink
LEOCIRCULAR

关于 Starlink 30559

正在加载描述...

实时位置

正在加载3D地球...

即将过境

高度历史

Altitude vs Time

uPlot chart will show altitude changes over time

两行轨道根数

1 58039U 23156M 25259.28425664 .00006649 00000-0 34693-3 0 9995
2 58039 53.1567 263.6840 0001651 83.0405 277.0777 15.17084737108252
Epoch: Sep 16, 2025 • Age: 4 hours

当前状态

高度 516.5 km
速度 7.61 km/s
星下点 34.67°N, 102.32°W
发射日期 Oct 9, 2023
运行时间 1.9 years
类型 internet

技术详情

分类 Payload
质量 730.00 kg
干质量 700.00 kg
总质量 730.00 kg
长度 0.30 m
直径 4.10 m
跨度 29.00 m
形状 Box + pan
制造商 SPXS
平台类型 Starlink V2M
阶段状态 In Orbit
所有者/国家 SPXS/US

大型星座

Loading constellations...